Location: Banff
(51.1667°N, 115.5667°W)
Time: 12:10:29
(UTC+00:00)

ISS - Pass Details

Date: 06 December 2022
Orbit: 412 x 419 km, 51.6° (Epoch: 01 February)

Event Time Altitude Azimuth Distance (km) Brightness Sun altitude
Rises 00:13:46 0° 284° (WNW) 2,350 0.8 -5.8°
Reaches altitude 10° 00:15:54 10° 279° (W) 1,486 -0.1 -6.1°
Maximum altitude 00:19:08 51° 203° (SSW) 529 -2.8 -6.5°
Drops below altitude 10° 00:22:23 10° 127° (SE) 1,483 -1.2 -7.0°
Enters shadow 00:25:45 -4° 120° (ESE) 2,865 0.2 -7.5°
